CST,Max TemperatureF,Mean TemperatureF,Min TemperatureF,Max Dew PointF,MeanDew PointF,Min DewpointF,Max Humidity, Mean Humidity, Min Humidity, Max Sea Level PressureIn, Mean Sea Level PressureIn, Min Sea Level PressureIn, Max VisibilityMiles, Mean VisibilityMiles, Min VisibilityMiles, Max Wind SpeedMPH, Mean Wind SpeedMPH, Max Gust SpeedMPH,PrecipitationIn, CloudCover, Events, WindDirDegrees
2013-1-1,33,24,14,34,22,10,100,87,79,30.23,30.16,30.07,10,7,2,10,6,,0.00,6,Snow,331
2013-1-2,26,17,8,14,11,9,100,79,55,30.29,30.25,30.21,10,9,7,6,2,,0.00,0,,274
2013-1-3,39,26,12,28,20,9,92,77,61,30.38,30.30,30.22,10,10,7,9,2,,0.00,1,,254
2013-1-4,39,30,21,27,23,19,93,79,56,30.44,30.37,30.33,10,9,5,9,3,,0.00,0,,227
2013-1-5,39,29,19,34,27,19,100,86,65,30.34,30.25,30.13,10,8,3,7,2,,0.00,4,,179
2013-1-6,37,29,21,34,28,21,100,85,65,30.39,30.22,30.06,10,9,4,22,7,31,0.00,6,,265
2013-1-7,39,28,17,28,24,18,100,88,61,30.45,30.34,30.20,10,7,3,13,2,16,0.00,0,,160
2013-1-8,46,34,21,34,29,21,100,79,53,30.26,30.20,30.17,10,8,2,10,4,,0.00,2,,151
2013-1-9,57,48,39,46,40,34,100,81,51,30.49,30.37,30.19,10,9,2,10,3,,0.14,2,Rain,272
2013-1-10,60,50,39,61,44,34,100,91,70,30.47,30.17,29.85,10,6,1,17,9,23,0.46,7,Rain,96
2013-1-11,60,56,53,61,53,48,100,87,72,29.93,29.87,29.82,10,10,5,16,9,22,0.10,2,Rain,186
2013-1-12,64,52,39,59,52,39,100,93,73,29.97,29.87,29.68,10,9,2,25,6,41,2.16,4,Rain-Thunderstorm,138
2013-1-13,39,30,21,39,29,18,100,95,80,30.33,30.06,29.83,10,9,2,17,11,25,0.29,7,Rain,324
2013-1-14,24,22,19,21,18,14,93,85,80,30.47,30.40,30.33,10,10,10,12,6,,0.00,1,,350
2013-1-15,30,24,19,27,22,18,100,88,80,30.39,30.27,30.10,10,9,5,12,7,,0.00,2,,17
2013-1-16,35,30,26,28,26,25,93,82,65,30.13,30.09,30.03,10,9,7,9,4,,0.00,4,,250
2013-1-17,42,34,26,34,28,25,93,80,65,30.48,30.27,30.12,10,10,10,21,5,26,0.00,2,,338
2013-1-18,42,32,21,30,27,21,100,79,60,30.51,30.38,30.18,10,10,10,16,4,21,0.00,0,,176
2013-1-19,55,46,37,39,34,27,81,65,50,30.20,30.06,29.93,10,10,10,16,9,26,0.00,0,,205
2013-1-20,42,34,26,36,21,16,87,64,44,30.32,30.24,30.07,10,10,10,18,9,23,0.00,1,,332
2013-1-21,26,20,14,18,9,1,86,63,46,30.36,30.29,30.22,10,10,10,22,14,29,0.00,2,,300
2013-1-22,19,14,10,9,3,0,68,57,46,30.46,30.40,30.35,10,10,10,13,8,18,0.00,3,,298
2013-1-23,39,27,15,25,17,9,86,66,44,30.37,30.26,30.13,10,10,10,20,3,25,0.00,1,,230
2013-1-24,28,22,15,19,9,5,74,56,40,30.60,30.46,30.29,10,10,10,20,12,29,0.00,1,,53
2013-1-25,39,31,23,25,19,5,93,66,40,30.30,30.15,30.09,10,10,10,13,6,,0.00,5,,219
2013-1-26,37,29,21,23,19,14,86,68,45,30.39,30.33,30.20,10,10,10,13,5,,0.00,0,,358
2013-1-27,46,36,26,45,31,19,100,88,74,30.34,30.21,30.03,10,6,2,15,8,18,0.07,5,Rain,131
2013-1-28,57,50,44,57,52,45,100,98,93,30.06,30.00,29.96,10,5,1,14,9,20,0.17,7,Rain,173
2013-1-29,66,60,53,61,58,54,100,90,77,29.95,29.72,29.37,10,8,7,32,14,38,0.48,6,Rain-Thunderstorm,172
2013-1-30,55,42,30,54,41,19,100,87,64,29.84,29.51,29.37,10,10,7,28,11,38,0.34,8,Rain-Snow,239
2013-1-31,32,22,12,28,18,1,93,71,60,30.31,30.02,29.84,10,9,1,30,17,37,0.00,7,Snow,277